Date,TemperatureHighF,TemperatureAvgF,TemperatureLowF,DewpointHighF,DewpointAvgF,DewpointLowF,HumidityHigh,HumidityAvg,HumidityLow,PressureMaxIn,PressureMinIn,WindSpeedMaxMPH,WindSpeedAvgMPH,GustSpeedMaxMPH,PrecipitationSumIn
2013-1-30,69.0,61.4,46.0,48.0,42.5,38.0,83,51,36,30.29,30.17,5,2,10,0.00
2013-1-31,76.0,63.7,48.0,51.0,44.4,38.0,69,50,36,30.16,30.04,5,1,9,0.00
2013-2-1,74.0,61.8,51.0,49.0,42.3,37.0,63,49,34,30.12,30.05,6,1,10,0.00
2013-2-2,71.0,62.5,55.0,53.0,47.2,40.0,73,58,46,30.14,30.04,5,1,9,0.00
2013-2-3,71.0,62.2,52.0,52.0,47.7,43.0,80,60,45,30.09,29.97,5,2,10,0.00
2013-2-4,64.0,54.3,48.0,53.0,48.9,43.0,97,82,65,30.05,29.94,5,1,9,0.00
2013-2-5,54.0,51.0,47.0,51.0,48.9,46.0,98,93,85,30.07,29.95,4,1,9,0.01
2013-2-6,61.0,54.0,48.0,51.0,47.7,45.0,92,80,63,30.07,29.96,7,2,13,0.01
2013-2-7,61.0,52.0,45.0,52.0,46.9,43.0,93,83,71,30.09,29.97,7,2,11,0.00
2013-2-8,54.0,47.8,42.0,47.0,42.9,39.0,93,83,72,29.98,29.86,11,3,26,0.54
2013-2-9,57.0,46.3,38.0,45.0,39.8,36.0,93,79,52,30.07,29.89,7,1,13,0.07
2013-2-10,59.0,47.7,40.0,46.0,41.7,36.0,92,80,56,30.08,29.98,6,1,12,0.03
2013-2-11,61.0,48.8,39.0,49.0,42.2,37.0,94,79,54,30.20,30.02,8,2,15,0.03
2013-2-12,61.0,50.2,39.0,47.0,38.5,30.0,78,64,48,30.30,30.20,7,2,13,0.00
2013-2-13,64.0,52.0,42.0,50.0,41.1,32.0,81,67,48,30.22,30.10,6,1,11,0.00
2013-2-14,73.0,55.8,44.0,53.0,46.4,38.0,90,72,43,30.16,30.01,6,1,9,0.00
2013-2-15,81.0,66.7,55.0,43.0,29.0,18.0,65,26,11,30.13,30.06,9,2,16,0.00
2013-2-16,82.0,68.9,55.0,28.0,20.9,13.0,32,17,12,30.09,29.93,7,3,13,0.00
2013-2-17,63.0,54.1,48.0,51.0,41.1,25.0,89,64,32,29.99,29.89,8,3,14,0.00
2013-2-18,60.0,52.6,49.0,49.0,45.8,43.0,87,78,62,30.02,29.92,7,3,14,0.00
2013-2-19,53.0,49.5,45.0,49.0,43.6,40.0,95,80,69,29.96,29.68,11,4,25,0.34
2013-2-20,59.0,49.5,41.0,44.0,38.0,32.0,93,66,43,29.97,29.67,13,4,27,0.23
2013-2-21,58.0,49.1,43.0,46.0,42.3,38.0,91,77,63,30.05,29.94,8,3,19,0.08
2013-2-22,62.0,50.5,41.0,49.0,42.5,36.0,90,75,60,30.16,30.05,6,2,12,0.08
2013-2-23,62.0,51.3,41.0,47.0,41.9,34.0,91,71,49,30.13,29.90,6,2,11,0.00
2013-2-24,69.0,54.7,43.0,45.0,31.2,7.0,93,53,9,30.16,29.94,12,2,22,0.00
2013-2-25,66.0,53.3,43.0,43.0,26.7,14.0,62,38,15,30.17,30.03,7,2,14,0.00
2013-2-26,66.0,54.6,40.0,48.0,39.1,24.0,83,58,31,30.07,29.95,7,1,10,0.00
2013-2-27,70.0,60.2,50.0,39.0,23.4,16.0,37,25,16,30.22,30.07,7,2,12,0.00
2013-2-28,77.0,64.0,52.0,40.0,21.4,10.0,31,20,11,30.25,30.18,7,3,12,0.00
2013-3-1,85.0,72.1,56.0,31.0,24.0,18.0,27,17,11,30.24,30.09,7,3,16,0.00
2013-3-2,82.0,69.1,56.0,40.0,30.1,24.0,55,24,14,30.15,30.03,6,2,11,0.00
2013-3-3,69.0,57.8,52.0,54.0,45.2,30.0,92,65,37,30.05,29.95,6,2,12,0.00
2013-3-4,64.0,56.1,51.0,52.0,50.1,48.0,92,81,63,30.06,29.98,7,2,15,0.00
2013-3-5,59.0,54.1,52.0,53.0,50.0,48.0,93,87,78,30.09,30.01,6,2,12,0.00
2013-3-6,62.0,55.0,49.0,49.0,45.6,42.0,88,71,52,30.11,29.98,8,3,14,0.00
2013-3-7,56.0,52.5,50.0,52.0,48.6,44.0,96,86,71,29.98,29.83,5,1,11,0.17
2013-3-8,57.0,50.9,46.0,48.0,45.1,42.0,96,81,57,30.01,29.74,12,3,22,0.59
2013-3-9,59.0,52.5,47.0,48.0,45.9,43.0,92,79,63,30.17,29.99,9,3,19,0.13
2013-3-10,71.0,56.2,43.0,53.0,40.2,-99.9,91,62,31,30.22,30.11,7,2,14,0.00
2013-3-11,73.0,59.3,47.0,53.0,43.2,32.0,90,58,31,30.14,30.00,5,1,10,0.00
2013-3-12,74.0,59.1,47.0,56.0,49.6,40.0,95,72,49,30.04,29.96,6,1,9,0.00
2013-3-13,80.0,58.9,51.0,58.0,50.6,44.0,96,76,46,30.06,29.98,3,1,8,0.00
2013-3-14,75.0,57.3,47.0,57.0,51.4,45.0,97,83,51,30.05,29.96,5,1,9,0.00
2013-3-15,70.0,55.2,48.0,57.0,51.6,47.0,98,89,62,30.00,29.91,6,1,10,0.00
2013-3-16,63.0,53.9,48.0,54.0,50.4,47.0,98,89,68,29.94,29.86,7,2,12,0.00
2013-3-17,65.0,56.0,52.0,54.0,51.2,49.0,95,85,67,29.96,29.89,6,2,12,0.00
2013-3-18,62.0,56.0,51.0,52.0,50.5,48.0,92,82,67,30.05,29.95,6,2,12,0.00
2013-3-19,65.0,56.4,50.0,54.0,51.4,47.0,94,84,67,30.08,30.01,6,2,12,0.00
2013-3-20,69.0,57.9,50.0,56.0,52.4,49.0,96,83,59,30.07,29.94,5,1,10,0.00
2013-3-21,66.0,57.7,51.0,55.0,51.7,48.0,93,81,55,29.94,29.78,7,2,13,0.00
2013-3-22,65.0,57.1,52.0,54.0,51.6,48.0,94,83,66,29.88,29.77,7,2,13,0.00
2013-3-23,67.0,56.6,49.0,54.0,50.8,46.0,92,81,62,29.98,29.86,6,2,13,0.00
2013-3-24,72.0,58.3,50.0,56.0,52.0,47.0,96,81,53,29.97,29.85,6,2,10,0.00
2013-3-25,73.0,58.7,50.0,58.0,53.1,47.0,98,83,55,29.93,29.85,5,1,9,0.00
2013-3-26,65.0,56.0,51.0,56.0,52.4,49.0,97,88,66,29.93,29.87,6,2,11,0.00
2013-3-27,63.0,56.5,53.0,54.0,51.5,50.0,93,83,69,30.01,29.89,8,2,14,0.00
2013-3-28,71.0,59.5,51.0,56.0,53.2,49.0,95,81,56,30.03,29.96,6,2,12,0.00
2013-3-29,66.0,58.3,54.0,58.0,54.4,52.0,95,88,71,30.07,30.00,6,2,11,0.00
2013-3-30,67.0,58.7,54.0,57.0,53.2,-99.9,95,86,68,30.09,30.02,6,2,12,0.00
2013-3-31,68.0,58.3,51.0,57.0,53.7,50.0,96,85,66,30.09,30.03,8,3,15,0.00
2013-4-1,68.0,58.8,53.0,53.0,51.7,49.0,92,78,55,30.13,30.04,11,4,20,0.00
2013-4-2,66.0,58.0,51.0,54.0,52.1,49.0,94,82,62,30.06,29.95,7,2,13,0.00
2013-4-3,70.0,58.0,52.0,58.0,53.6,50.0,95,86,64,30.04,29.96,9,2,15,0.00
2013-4-4,69.0,60.0,54.0,58.0,54.7,53.0,96,83,66,30.06,29.97,8,2,13,0.00
2013-4-5,64.0,57.5,54.0,57.0,54.7,52.0,97,91,76,30.06,29.96,6,2,14,0.03
2013-4-6,67.0,58.9,55.0,57.0,53.8,51.0,93,84,65,30.04,29.92,6,3,14,0.01
2013-4-7,66.0,57.9,51.0,55.0,52.9,49.0,94,84,67,29.92,29.78,6,2,13,0.00
2013-4-8,64.0,57.0,52.0,54.0,49.2,45.0,94,76,52,29.79,29.65,15,6,24,0.00
2013-4-9,70.0,57.8,47.0,51.0,41.8,27.0,87,60,22,29.97,29.78,10,3,18,0.00
2013-4-10,73.0,60.9,48.0,53.0,41.4,31.0,67,50,22,30.04,29.95,7,3,15,0.00
2013-4-11,69.0,58.9,52.0,54.0,46.0,32.0,87,64,36,29.97,29.76,13,4,20,0.00
2013-4-12,67.0,58.6,55.0,55.0,52.2,50.0,92,80,63,29.85,29.74,7,3,14,0.00
2013-4-13,58.0,55.8,54.0,55.0,52.9,50.0,93,90,86,29.88,29.80,8,3,15,0.00
2013-4-14,59.0,54.7,52.0,53.0,50.7,49.0,92,86,80,29.85,29.79,9,4,16,0.00
2013-4-15,62.0,55.9,53.0,54.0,51.3,47.0,93,85,73,29.88,29.81,8,4,16,0.00
2013-4-16,62.0,54.5,49.0,48.0,44.8,39.0,85,71,50,29.95,29.83,9,4,17,0.00
2013-4-17,70.0,57.5,45.0,45.0,33.7,23.0,86,47,19,30.07,29.95,11,4,21,0.00
2013-4-18,76.0,64.7,51.0,34.0,21.8,15.0,39,21,11,30.14,30.06,10,5,22,0.00
2013-4-19,82.0,69.1,53.0,47.0,24.0,14.0,66,20,8,30.10,29.93,8,3,14,0.00
2013-4-20,80.0,65.6,51.0,55.0,45.7,35.0,84,53,24,29.96,29.84,6,2,10,0.00
2013-4-21,74.0,60.3,51.0,57.0,52.8,45.0,93,78,48,29.97,29.89,7,2,13,0.00
2013-4-22,67.0,57.9,53.0,56.0,52.8,51.0,95,84,64,29.97,29.88,7,2,14,0.00
2013-4-23,68.0,58.8,54.0,54.0,51.9,50.0,88,78,57,29.94,29.82,7,2,13,0.00
2013-4-24,61.0,57.0,55.0,56.0,52.5,49.0,95,85,69,29.94,29.86,6,1,12,0.04
2013-4-25,70.0,60.3,54.0,54.0,52.3,49.0,93,76,52,30.07,29.92,8,2,14,0.04
2013-4-26,74.0,62.1,51.0,55.0,51.4,48.0,91,70,46,30.11,30.04,9,2,16,0.00
2013-4-27,69.0,60.7,54.0,59.0,55.6,52.0,98,84,67,30.11,29.96,7,2,13,0.00
2013-4-28,70.0,59.6,56.0,59.0,55.7,54.0,97,88,66,29.99,29.83,6,2,11,0.00
2013-4-29,66.0,58.8,55.0,58.0,55.0,53.0,97,88,70,29.86,29.75,6,3,12,0.00
2013-4-30,64.0,58.5,56.0,56.0,53.7,52.0,91,84,74,29.86,29.79,10,4,22,0.00
2013-5-1,70.0,61.5,56.0,57.0,55.8,55.0,96,83,62,30.05,29.85,7,3,15,0.00
2013-5-2,86.0,65.3,55.0,60.0,55.0,45.0,93,73,24,30.07,29.93,6,1,13,0.00
2013-5-3,89.0,73.4,61.0,57.0,35.1,11.0,75,32,7,29.97,29.74,6,2,12,0.00
2013-5-4,66.0,60.4,55.0,56.0,53.8,49.0,94,79,69,29.82,29.71,13,6,22,0.00
2013-5-5,65.0,59.1,57.0,55.0,53.5,51.0,90,82,65,29.91,29.79,13,5,22,0.00
2013-5-6,63.0,59.2,56.0,58.0,55.8,54.0,97,89,76,29.98,29.86,10,4,22,0.20
2013-5-7,69.0,60.8,56.0,56.0,53.7,48.0,95,79,49,30.03,29.94,9,2,18,0.03
2013-5-8,68.0,61.5,57.0,57.0,53.5,47.0,89,76,58,30.06,30.02,9,3,15,0.03
2013-5-9,68.0,60.1,52.0,58.0,53.9,50.0,93,81,62,30.06,29.99,8,2,18,0.00
2013-5-10,71.0,62.0,55.0,60.0,54.4,-99.9,92,81,65,30.04,29.97,8,2,14,0.00
2013-5-11,79.0,64.3,58.0,63.0,58.4,-99.9,97,84,57,30.04,29.93,5,1,10,0.00
2013-5-12,93.0,71.7,56.0,65.0,58.3,50.0,99,69,24,30.01,29.86,6,2,11,0.00
2013-5-13,97.0,80.7,65.0,60.0,51.4,43.0,69,39,21,29.92,29.81,9,2,15,0.00
2013-5-14,75.0,65.2,58.0,60.0,57.0,54.0,90,76,56,29.96,29.85,6,2,12,0.00
2013-5-15,68.0,61.6,58.0,57.0,55.2,53.0,89,80,67,29.99,29.92,9,4,16,0.00
2013-5-16,69.0,58.5,58.0,59.0,40.4,-99.9,87,80,67,29.93,29.86,9,4,17,0.00
2013-5-17,69.0,62.2,59.0,58.0,51.4,-99.9,88,79,65,29.96,29.86,10,4,20,0.00
2013-5-18,71.0,62.7,57.0,58.0,56.1,54.0,91,80,61,30.00,29.93,8,3,17,0.00
2013-5-19,71.0,62.7,56.0,59.0,56.3,53.0,95,81,64,29.95,29.85,8,2,16,0.00
2013-5-20,76.0,63.8,56.0,61.0,57.7,53.0,95,82,54,29.91,29.85,7,2,15,0.00
2013-5-21,73.0,63.8,59.0,62.0,59.1,57.0,95,85,68,29.90,29.80,6,2,11,0.00
2013-5-22,67.0,62.6,60.0,58.0,56.1,55.0,87,80,68,29.82,29.75,10,4,18,0.00
2013-5-23,65.0,60.9,58.0,55.0,53.9,52.0,87,78,65,29.90,29.78,11,4,19,0.00
2013-5-24,66.0,60.3,54.0,55.0,52.9,50.0,88,77,66,29.96,29.87,8,3,18,0.00
2013-5-25,70.0,59.5,52.0,56.0,52.6,49.0,89,79,58,29.99,29.93,8,3,15,0.00
2013-5-26,66.0,60.3,56.0,56.0,53.8,52.0,88,80,69,30.02,29.95,9,3,18,0.00
2013-5-27,70.0,61.6,54.0,59.0,55.5,52.0,93,81,63,29.97,29.83,7,3,15,0.00
2013-5-28,72.0,63.6,59.0,60.0,56.9,55.0,91,79,63,29.85,29.72,7,3,16,0.00
2013-5-29,74.0,64.7,58.0,62.0,58.7,56.0,93,82,65,29.77,29.69,6,2,13,0.00
2013-5-30,70.0,63.1,58.0,61.0,58.4,56.0,95,85,70,29.85,29.72,8,3,17,0.00
2013-5-31,74.0,64.9,60.0,61.0,58.7,56.0,91,81,63,29.86,29.78,6,3,13,0.00
2013-6-1,74.0,65.3,61.0,64.0,60.3,58.0,93,84,68,29.82,29.73,7,2,14,0.00
2013-6-2,65.0,61.5,60.0,60.0,58.6,57.0,95,91,81,29.80,29.72,8,3,15,0.00
2013-6-3,68.0,62.5,59.0,61.0,57.6,56.0,93,84,70,29.85,29.76,8,3,16,0.00
2013-6-4,71.0,63.5,59.0,59.0,57.2,56.0,91,81,63,29.92,29.84,7,3,13,0.00
2013-6-5,73.0,64.7,58.0,59.0,57.5,55.0,89,78,61,29.95,29.86,10,3,16,0.00
2013-6-6,70.0,62.7,56.0,60.0,57.6,53.0,93,84,69,29.91,29.83,7,2,14,0.00
2013-6-7,71.0,62.2,59.0,61.0,57.8,56.0,92,86,69,29.87,29.76,6,2,12,0.00
2013-6-8,65.0,60.7,58.0,60.0,57.4,56.0,94,89,79,29.87,29.75,7,3,14,0.00
2013-6-9,68.0,61.6,58.0,61.0,57.5,55.0,93,86,74,29.89,29.83,7,2,15,0.00
2013-6-10,73.0,64.2,58.0,59.0,56.5,55.0,90,77,59,29.91,29.85,7,2,14,0.00
2013-6-11,79.0,65.6,57.0,64.0,59.4,55.0,95,82,56,29.90,29.84,7,2,13,0.00
2013-6-12,71.0,62.8,60.0,62.0,59.2,58.0,97,88,74,29.98,29.88,7,2,13,0.00
2013-6-13,72.0,64.5,61.0,61.0,58.9,58.0,91,83,66,29.97,29.86,7,2,13,0.00
2013-6-14,68.0,61.8,58.0,60.0,57.2,54.0,93,85,71,29.88,29.81,8,3,14,0.00
2013-6-15,71.0,62.5,58.0,58.0,55.8,54.0,90,80,62,29.93,29.85,7,3,14,0.00
2013-6-16,72.0,64.3,59.0,59.0,57.0,54.0,93,78,61,29.98,29.91,7,2,13,0.00
2013-6-17,74.0,64.4,59.0,62.0,58.9,56.0,94,83,65,29.94,29.85,6,2,12,0.00
2013-6-18,72.0,63.0,57.0,62.0,58.9,56.0,98,87,68,29.88,29.81,7,2,14,0.00
2013-6-19,74.0,65.5,60.0,61.0,58.5,56.0,93,79,63,29.83,29.76,7,2,13,0.00
2013-6-20,75.0,63.4,55.0,61.0,58.6,54.0,97,86,58,29.82,29.75,7,2,12,0.00
2013-6-21,73.0,70.0,66.0,61.0,60.2,59.0,77,71,65,29.85,29.80,6,5,14,0.00
2013-6-22,75.0,66.8,60.0,61.0,59.0,57.0,91,77,61,29.88,29.78,8,4,14,0.00
2013-6-23,70.0,63.0,59.0,60.0,57.3,56.0,90,82,67,29.84,29.76,8,3,14,0.00
2013-6-24,71.0,63.1,59.0,60.0,58.1,55.0,93,84,68,29.91,29.79,7,3,14,0.00
2013-6-25,80.0,67.0,59.0,64.0,60.7,57.0,93,81,57,29.95,29.85,7,2,14,0.00
2013-6-26,79.0,69.0,62.0,66.0,62.8,60.0,96,82,57,29.94,29.85,6,2,12,0.00
2013-6-27,84.0,69.4,61.0,67.0,62.9,60.0,97,82,50,29.98,29.92,4,1,9,0.00
2013-6-28,85.0,71.5,61.0,68.0,63.4,60.0,98,79,50,29.95,29.83,6,2,10,0.00
2013-6-29,85.0,72.2,63.0,69.0,64.6,62.0,98,79,52,29.84,29.69,5,1,10,0.00
2013-6-30,85.0,70.8,65.0,68.0,64.1,61.0,90,80,57,29.77,29.66,10,2,17,0.00
2013-7-1,90.0,71.0,64.0,68.0,63.4,56.0,95,80,35,29.84,29.75,5,1,10,0.00
2013-7-2,75.0,67.8,63.0,68.0,63.9,61.0,98,88,74,29.96,29.82,6,2,13,0.00
2013-7-3,81.0,68.3,63.0,69.0,64.1,62.0,98,87,66,29.88,29.77,6,1,11,0.00
2013-7-4,78.0,67.7,62.0,66.0,62.7,61.0,97,85,65,29.80,29.73,6,2,12,0.00
2013-7-5,76.0,66.9,62.0,65.0,62.1,60.0,92,85,69,29.81,29.73,7,2,14,0.00
2013-7-6,75.0,67.4,64.0,65.0,62.8,61.0,92,85,71,29.79,29.72,7,2,11,0.00
2013-7-7,78.0,69.0,63.0,67.0,63.5,61.0,93,83,68,29.82,29.72,7,2,12,0.00
2013-7-8,82.0,66.8,62.0,67.0,61.2,-99.9,97,86,58,29.88,29.79,6,1,12,0.00
2013-7-9,79.0,68.8,62.0,67.0,63.1,60.0,95,83,56,29.96,29.85,8,2,18,0.00
2013-7-10,77.0,67.9,65.0,67.0,62.4,-99.9,94,86,62,29.93,29.85,6,2,11,0.00
2013-7-11,74.0,67.7,65.0,68.0,64.8,62.0,95,90,80,29.92,29.85,4,1,8,0.00
2013-7-12,79.0,69.5,65.0,68.0,65.0,63.0,95,86,66,29.88,29.81,5,2,11,0.00
2013-7-13,77.0,69.1,65.0,67.0,63.7,62.0,94,83,67,29.90,29.82,7,2,13,0.00
2013-7-14,81.0,69.6,64.0,67.0,63.9,62.0,94,83,57,29.88,29.79,6,2,11,0.00
2013-7-15,81.0,70.5,63.0,67.0,62.9,53.0,95,79,43,29.82,29.75,7,2,11,0.00
2013-7-16,79.0,67.8,61.0,65.0,61.3,57.0,98,81,50,29.94,29.80,6,2,11,0.00
2013-7-17,86.0,70.2,57.0,63.0,57.7,46.0,96,69,28,29.96,29.90,8,2,13,0.01
2013-7-18,76.0,66.9,59.0,64.0,60.5,56.0,97,81,62,29.94,29.81,6,2,11,0.01
2013-7-19,74.0,66.6,62.0,65.0,62.0,60.0,95,86,73,29.86,29.80,6,2,12,0.00
2013-7-20,70.0,64.1,62.0,64.0,59.9,-99.9,93,88,81,29.84,29.76,5,2,10,0.00
2013-7-21,69.0,65.4,63.0,65.0,62.3,61.0,94,89,83,29.88,29.74,5,2,10,0.00
2013-7-22,77.0,68.4,63.0,66.0,63.2,61.0,94,84,67,29.93,29.86,7,2,14,0.00
2013-7-23,77.0,68.9,63.0,66.0,62.9,60.0,93,82,64,29.98,29.88,7,2,13,0.00
2013-7-24,78.0,68.8,62.0,65.0,62.4,59.0,93,81,64,29.93,29.84,6,2,13,0.00
2013-7-25,76.0,67.0,62.0,64.0,61.8,60.0,94,84,64,29.97,29.88,6,2,11,0.00
2013-7-26,79.0,66.4,63.0,67.0,62.8,61.0,95,88,65,30.03,29.93,6,1,10,0.06
2013-7-27,76.0,66.0,62.0,67.0,62.3,60.0,96,88,69,29.97,29.84,7,2,12,0.03
2013-7-28,74.0,64.1,60.0,64.0,60.3,58.0,96,88,69,29.89,29.84,7,2,13,0.01
2013-7-29,74.0,65.3,60.0,61.0,58.5,56.0,90,79,62,29.99,29.87,6,2,14,0.01
2013-7-30,74.0,65.6,59.0,62.0,58.3,55.0,91,78,62,30.07,29.99,7,2,13,0.00
2013-7-31,74.0,64.4,57.0,61.0,57.9,53.0,93,80,62,30.06,29.96,8,2,14,0.00
2013-8-1,75.0,66.7,62.0,60.0,58.9,57.0,90,77,58,29.98,29.87,7,2,12,0.00
2013-8-2,75.0,65.9,61.0,62.0,59.1,57.0,91,80,61,29.93,29.87,6,3,11,0.00
2013-8-3,75.0,65.5,60.0,62.0,59.3,56.0,91,82,64,29.95,29.89,7,2,13,0.00
2013-8-4,75.0,67.0,62.0,63.0,60.2,58.0,91,80,62,29.96,29.88,6,2,12,0.00
2013-8-5,76.0,64.9,59.0,63.0,59.7,58.0,96,84,61,29.95,29.89,6,2,11,0.00
2013-8-6,74.0,65.8,60.0,62.0,59.2,57.0,91,80,62,29.99,29.92,6,2,13,0.00
2013-8-7,75.0,65.9,60.0,61.0,59.1,56.0,92,80,61,30.03,29.93,6,2,11,0.00
2013-8-8,77.0,64.5,56.0,62.0,58.0,53.0,93,80,59,29.96,29.86,7,2,12,0.00
2013-8-9,74.0,64.1,59.0,61.0,58.4,55.0,95,83,63,29.92,29.86,7,2,12,0.00
2013-8-10,73.0,63.9,58.0,60.0,57.4,54.0,93,80,62,29.99,29.91,6,2,12,0.00
2013-8-11,75.0,65.7,59.0,62.0,59.3,56.0,92,81,62,29.95,29.85,6,2,11,0.00
2013-8-12,75.0,65.8,61.0,63.0,60.4,58.0,94,83,65,29.93,29.85,5,2,12,0.00
2013-8-13,76.0,64.9,61.0,64.0,58.9,-99.9,94,85,66,29.93,29.84,7,2,12,0.00
2013-8-14,77.0,65.4,60.0,65.0,60.8,58.0,95,86,65,29.88,29.80,6,2,13,0.00
2013-8-15,78.0,61.1,61.0,66.0,46.7,-99.9,96,80,65,29.90,29.84,5,2,11,0.00
2013-8-16,81.0,68.0,61.0,66.0,59.0,-99.9,94,79,53,29.91,29.85,5,2,11,0.00
2013-8-17,80.0,67.0,61.0,67.0,60.2,-99.9,96,82,60,29.91,29.78,6,2,11,0.00
2013-8-18,75.0,66.1,61.0,65.0,61.4,59.0,95,85,70,29.86,29.78,7,2,13,0.00
2013-8-19,76.0,63.0,62.0,65.0,52.9,-99.9,94,86,66,29.90,29.83,6,2,11,0.00
2013-8-20,81.0,68.2,62.0,65.0,60.5,-99.9,93,81,57,29.88,29.78,6,2,12,0.00
2013-8-21,86.0,70.6,61.0,65.0,60.8,58.0,93,74,45,29.87,29.78,6,1,10,0.00
2013-8-22,93.0,73.5,61.0,64.0,59.1,49.0,91,65,25,29.87,29.74,9,2,12,0.00
2013-8-23,84.0,70.1,61.0,63.0,60.3,58.0,91,74,43,29.82,29.69,5,1,12,0.00
2013-8-24,80.0,65.5,58.0,64.0,58.3,-99.9,95,81,56,29.83,29.72,4,1,11,0.00
2013-8-25,82.0,67.8,57.0,65.0,60.0,56.0,97,78,46,29.86,29.79,6,1,10,0.00
2013-8-26,87.0,75.2,66.0,65.0,58.9,53.0,77,58,40,29.87,29.75,4,1,8,0.00
2013-8-27,85.0,71.5,66.0,66.0,62.5,59.0,89,75,46,29.79,29.75,5,1,9,0.00
2013-8-28,89.0,80.8,69.0,65.0,60.6,54.0,73,52,33,29.84,29.75,6,2,10,0.00
2013-8-29,90.0,77.5,66.0,64.0,60.1,56.0,80,57,36,29.87,29.82,6,1,12,0.00
2013-8-30,90.0,82.1,74.0,71.0,64.4,49.0,73,56,37,29.92,29.83,8,2,17,0.00
2013-8-31,89.0,77.9,73.0,73.0,66.3,-99.9,83,70,54,29.91,29.82,7,2,13,0.00
2013-9-1,89.0,77.6,69.0,71.0,67.6,64.0,87,73,55,29.88,29.78,8,2,14,0.00
2013-9-2,89.0,73.2,65.0,69.0,66.1,63.0,96,80,51,29.86,29.75,6,2,13,0.00
2013-9-3,89.0,77.8,69.0,70.0,66.3,63.0,90,70,47,29.85,29.76,6,1,12,0.00
2013-9-4,91.0,79.3,68.0,68.0,63.5,57.0,85,61,34,29.84,29.77,6,2,10,0.00
2013-9-5,89.0,75.6,67.0,67.0,63.8,59.0,86,69,37,29.83,29.77,6,1,10,0.00
2013-9-6,94.0,75.3,69.0,68.0,62.4,59.0,76,66,34,29.81,29.73,4,1,9,0.00
2013-9-7,91.0,75.4,68.0,66.0,60.1,-99.9,88,63,33,29.80,29.75,6,1,10,0.00
2013-9-8,82.0,71.7,64.0,65.0,62.0,59.0,93,73,49,29.80,29.70,6,1,10,0.00
2013-9-9,78.0,67.9,62.0,64.0,60.2,57.0,88,77,57,29.77,29.70,6,2,11,0.00
2013-9-10,76.0,66.9,61.0,62.0,60.2,57.0,92,80,63,29.90,29.76,6,2,11,0.00
2013-9-11,75.0,66.7,62.0,62.0,59.4,57.0,88,78,62,29.95,29.87,7,2,14,0.00
2013-9-12,82.0,68.8,59.0,66.0,60.5,56.0,94,76,55,29.89,29.77,5,1,10,0.00
2013-9-13,82.0,68.5,59.0,65.0,60.1,56.0,92,76,53,29.79,29.62,5,1,9,0.00
2013-9-14,84.0,67.7,59.0,66.0,59.8,-99.9,93,80,55,29.67,29.58,6,1,9,0.00
2013-9-15,84.0,70.2,63.0,67.0,62.7,59.0,95,79,52,29.72,29.65,5,1,10,0.01
2013-9-16,85.0,70.6,62.0,66.0,61.6,58.0,94,75,48,29.76,29.69,6,2,13,0.01
2013-9-17,75.0,65.2,61.0,64.0,61.1,59.0,96,87,66,29.78,29.69,5,2,11,0.00
2013-9-18,65.0,62.1,61.0,59.0,58.1,57.0,91,87,81,29.74,29.70,4,1,8,0.00
2013-9-19,77.0,66.0,59.0,64.0,60.1,56.0,94,82,62,29.78,29.71,6,2,13,0.00
2013-9-20,67.0,65.0,63.0,63.0,60.6,58.0,91,86,81,29.84,29.77,6,1,13,0.00
2013-9-21,75.0,66.8,62.0,61.0,57.5,-99.9,86,75,58,29.86,29.76,9,3,14,0.00
2013-9-22,75.0,65.5,58.0,61.0,56.7,50.0,94,75,53,29.80,29.74,7,2,15,0.00
2013-9-23,87.0,70.7,59.0,60.0,53.9,49.0,77,58,35,29.85,29.75,5,1,11,0.00
2013-9-24,84.0,71.3,64.0,58.0,51.3,40.0,76,51,32,29.88,29.79,7,2,12,0.00
2013-9-25,72.0,66.4,60.0,61.0,58.7,54.0,89,76,68,29.81,29.67,12,6,21,0.00
2013-9-26,74.0,64.6,58.0,59.0,54.0,46.0,84,70,46,29.84,29.68,10,5,17,0.00
2013-9-27,79.0,66.8,53.0,58.0,46.3,34.0,80,51,26,29.94,29.83,6,2,14,0.00
2013-9-28,86.0,72.6,59.0,46.0,34.8,-99.9,39,27,16,29.99,29.90,8,2,13,0.00
2013-9-29,85.0,69.4,60.0,54.0,40.5,35.0,46,36,24,30.00,29.91,4,1,12,0.00
2013-9-30,82.0,72.2,58.0,61.0,52.5,43.0,76,53,26,29.93,29.81,6,2,11,0.00
2013-10-1,68.0,62.1,60.0,61.0,57.8,56.0,89,86,77,29.88,29.83,5,3,12,0.00
2013-10-2,72.0,65.0,61.0,60.0,57.9,56.0,88,79,66,29.92,29.84,6,2,13,0.00
2013-10-3,71.0,64.6,60.0,61.0,58.1,55.0,87,80,69,29.88,29.79,8,2,15,0.00
2013-10-4,78.0,65.6,59.0,62.0,57.5,30.0,88,77,26,29.97,29.83,6,1,10,0.00
2013-10-5,91.0,74.7,63.0,46.0,26.9,10.0,36,18,5,30.05,29.97,8,3,18,0.00
2013-10-6,91.0,79.6,65.0,36.0,24.4,16.0,25,14,7,30.01,29.90,9,3,14,0.00
2013-10-7,82.0,70.2,60.0,60.0,48.0,22.0,85,49,18,29.91,29.85,6,2,12,0.00
2013-10-8,70.0,62.1,55.0,58.0,54.3,51.0,91,76,64,29.89,29.78,10,3,18,0.00
2013-10-9,62.0,58.0,51.0,54.0,51.4,48.0,91,79,66,29.79,29.68,13,5,23,0.24
2013-10-10,69.0,58.5,49.0,53.0,49.9,47.0,93,75,49,29.97,29.75,8,2,15,0.27
2013-10-11,76.0,62.2,51.0,58.0,51.8,46.0,86,70,49,29.99,29.88,7,2,13,0.00
2013-10-12,73.0,61.3,53.0,60.0,54.0,-99.9,93,80,61,29.93,29.85,6,2,11,0.00
2013-10-13,68.0,60.7,54.0,57.0,54.7,50.0,91,81,67,29.98,29.88,6,2,13,0.00
2013-10-14,80.0,65.7,51.0,62.0,53.2,49.0,95,67,36,29.97,29.84,6,1,12,0.00
2013-10-15,85.0,72.4,59.0,54.0,42.8,34.0,78,39,17,29.91,29.83,7,2,12,0.00
2013-10-16,85.0,74.1,60.0,39.0,32.1,27.0,42,23,13,30.00,29.91,6,3,11,0.00
2013-10-17,81.0,71.1,59.0,50.0,40.4,27.0,51,34,21,29.97,29.88,6,3,11,0.00
2013-10-18,81.0,67.7,56.0,58.0,47.6,36.0,66,49,33,29.96,29.87,4,1,9,0.00
2013-10-19,82.0,66.7,58.0,59.0,49.8,-99.9,80,58,36,29.96,29.90,4,1,8,0.00
2013-10-20,75.0,65.6,52.0,60.0,56.7,49.0,92,74,56,29.93,29.85,6,1,10,0.00
2013-10-21,75.0,61.9,53.0,60.0,55.9,51.0,95,82,54,29.93,29.86,4,1,9,0.00
2013-10-22,73.0,60.9,54.0,61.0,56.6,51.0,96,86,63,29.95,29.86,6,2,11,0.00
2013-10-23,70.0,62.2,58.0,58.0,55.7,54.0,89,80,62,29.93,29.86,6,2,12,0.00
2013-10-24,72.0,62.7,59.0,57.0,55.1,54.0,85,77,57,29.98,29.91,7,2,16,0.00
2013-10-25,75.0,63.7,57.0,59.0,56.2,53.0,88,77,58,30.07,29.96,8,2,12,0.00
2013-10-26,74.0,61.4,53.0,62.0,55.3,-99.9,95,83,65,30.04,29.91,6,1,12,0.01
2013-10-27,72.0,60.0,54.0,62.0,56.4,53.0,97,88,67,29.94,29.78,6,2,10,0.01
2013-10-28,64.0,58.9,55.0,57.0,51.4,-99.9,92,79,69,29.89,29.79,8,4,16,0.01
2013-10-29,67.0,58.1,49.0,52.0,49.3,45.0,91,74,53,29.96,29.88,8,2,14,0.01
2013-10-30,69.0,59.0,49.0,55.0,50.0,44.0,88,73,53,30.01,29.93,8,2,14,0.00
2013-10-31,78.0,63.0,52.0,50.0,45.9,42.0,82,56,29,30.04,29.93,6,1,11,0.00
2013-11-1,86.0,71.6,56.0,46.0,38.0,32.0,67,33,15,30.03,29.88,5,2,9,0.00
2013-11-2,81.0,66.1,57.0,58.0,44.1,-99.9,91,52,18,29.93,29.83,8,2,15,0.00
2013-11-3,67.0,59.9,54.0,56.0,53.1,51.0,92,79,62,29.88,29.78,8,2,15,0.00
2013-11-4,64.0,58.5,52.0,53.0,50.4,47.0,85,75,62,29.89,29.75,6,2,14,0.00
2013-11-5,74.0,57.4,50.0,56.0,39.4,17.0,92,59,19,30.08,29.89,5,1,9,0.00
2013-11-6,80.0,73.3,55.0,39.0,23.0,12.0,25,16,11,30.14,30.06,8,3,12,0.00
2013-11-7,87.0,75.7,61.0,31.0,22.2,10.0,26,14,8,30.04,29.93,6,2,10,0.00
2013-11-8,75.0,61.6,54.0,53.0,38.1,24.0,85,47,18,29.98,29.90,5,1,11,0.00
2013-11-9,77.0,63.6,52.0,52.0,39.9,-99.9,89,48,24,30.03,29.95,4,1,9,0.00
2013-11-10,84.0,63.9,55.0,52.0,38.7,18.0,71,44,10,30.07,29.97,5,1,9,0.00
2013-11-11,77.0,64.8,54.0,57.0,49.6,32.0,81,61,29,30.08,29.97,5,2,10,0.00
2013-11-12,78.0,67.8,56.0,56.0,47.6,38.0,82,50,28,30.11,30.00,10,2,17,0.00
2013-11-13,91.0,76.9,63.0,48.0,39.8,32.0,39,28,16,30.00,29.83,5,1,9,0.00
2013-11-14,88.0,75.5,60.0,51.0,40.3,29.0,64,33,13,29.86,29.72,6,2,10,0.00
2013-11-15,63.0,59.5,56.0,56.0,54.8,47.0,92,85,64,29.72,29.63,11,4,18,0.00
2013-11-16,64.0,57.7,55.0,54.0,49.3,-99.9,93,77,53,29.90,29.71,8,2,21,0.03
2013-11-17,68.0,59.0,53.0,53.0,51.0,49.0,87,76,57,30.05,29.90,7,1,12,0.01
2013-11-18,69.0,59.0,51.0,57.0,52.1,48.0,94,79,59,30.11,30.00,8,2,15,0.00
2013-11-19,66.0,59.1,55.0,55.0,53.0,51.0,89,81,63,30.04,29.91,6,1,12,0.00
2013-11-20,63.0,58.7,54.0,56.0,53.9,51.0,95,84,74,29.93,29.85,6,2,13,0.10
2013-11-21,59.0,57.4,54.0,58.0,56.4,53.0,98,96,95,29.85,29.80,9,4,16,0.57
2013-11-22,57.0,53.1,50.0,53.0,48.3,41.0,96,84,68,29.91,29.78,8,2,16,0.06
2013-11-23,67.0,54.8,49.0,48.0,43.5,-99.9,82,69,48,30.04,29.90,7,2,11,0.01
2013-11-24,68.0,56.5,47.0,53.0,46.9,41.0,81,71,52,30.14,30.03,7,2,14,0.00
2013-11-25,74.0,59.4,49.0,51.0,44.2,41.0,76,59,38,30.19,30.10,7,2,12,0.00
2013-11-26,75.0,63.5,51.0,52.0,41.3,34.0,70,46,32,30.14,29.98,6,2,9,0.00
2013-11-27,75.0,63.8,55.0,49.0,40.5,34.0,70,43,31,29.98,29.83,6,1,10,0.00
2013-11-28,66.0,58.7,51.0,53.0,44.4,34.0,75,60,47,30.01,29.84,7,2,15,0.00
2013-11-29,63.0,57.2,54.0,57.0,52.4,47.0,90,84,75,30.12,30.01,7,1,12,0.07
2013-11-30,75.0,60.3,53.0,56.0,50.0,-99.9,87,72,42,30.12,30.03,6,1,11,0.01
2013-12-1,80.0,63.9,55.0,55.0,44.7,30.0,75,52,30,30.15,30.04,6,1,9,0.00
2013-12-2,73.0,64.7,55.0,46.0,38.0,27.0,66,39,25,30.06,29.86,5,1,9,0.00
2013-12-3,61.0,56.9,51.0,54.0,50.2,38.0,86,78,58,29.86,29.72,9,4,17,0.00
2013-12-4,62.0,53.8,47.0,48.0,40.9,37.0,79,63,44,29.92,29.75,7,2,14,0.00
2013-12-5,61.0,51.8,46.0,42.0,38.9,35.0,76,62,41,30.06,29.90,7,2,17,0.00
2013-12-6,58.0,50.4,46.0,43.0,38.8,36.0,72,65,50,30.14,30.05,11,3,21,0.00
2013-12-7,56.0,48.9,44.0,52.0,40.6,-99.9,92,75,64,30.09,29.97,12,2,20,0.19
2013-12-8,56.0,47.4,41.0,41.0,37.7,33.0,78,69,54,30.16,30.06,8,2,15,0.04
2013-12-9,62.0,50.0,40.0,34.0,14.4,-1.0,69,28,12,30.22,30.12,12,4,23,0.00
2013-12-10,67.0,54.3,44.0,34.0,21.1,2.0,48,29,15,30.21,30.04,6,2,11,0.00
2013-12-11,71.0,58.1,48.0,42.0,29.5,16.0,66,36,17,30.11,30.03,5,1,10,0.00
2013-12-12,68.0,55.8,47.0,50.0,42.4,27.0,87,64,29,30.17,30.09,6,1,11,0.00
2013-12-13,66.0,52.7,43.0,49.0,44.2,38.0,91,74,49,30.19,30.09,4,1,10,0.00
2013-12-14,74.0,57.5,46.0,47.0,34.3,-99.9,92,52,18,30.22,30.12,6,1,10,0.00
2013-12-15,82.0,65.6,55.0,46.0,29.6,16.0,47,27,10,30.19,30.01,5,1,9,0.00
2013-12-16,82.0,70.2,59.0,41.0,33.7,22.0,31,26,20,30.07,29.98,7,1,13,0.00
2013-12-17,78.0,67.1,59.0,52.0,40.8,30.0,73,40,29,30.06,29.94,4,1,8,0.00
2013-12-18,68.0,60.0,54.0,56.0,48.4,39.0,91,67,44,29.96,29.81,7,3,14,0.00
2013-12-19,55.0,51.2,44.0,52.0,46.9,41.0,90,85,78,29.83,29.68,8,2,16,0.05
2013-12-20,62.0,50.9,42.0,49.0,44.8,39.0,93,80,62,29.91,29.72,6,1,13,0.01
2013-12-21,59.0,51.3,47.0,50.0,44.3,-99.9,88,79,70,30.05,29.88,7,2,12,0.01
2013-12-22,71.0,56.0,45.0,53.0,46.7,39.0,93,73,51,30.21,30.04,6,1,9,0.00
2013-12-23,80.0,63.9,51.0,42.0,38.0,34.0,66,42,20,30.25,30.13,8,3,16,0.00
2013-12-24,77.0,64.6,56.0,48.0,40.0,32.0,53,41,29,30.14,30.03,4,1,10,0.00
2013-12-25,84.0,69.9,58.0,37.0,23.7,13.0,45,19,9,30.13,30.03,9,3,18,0.00
2013-12-26,84.0,68.0,58.0,39.0,14.4,8.0,35,14,6,30.10,30.00,9,2,15,0.00
2013-12-27,81.0,69.5,56.0,31.0,19.4,10.0,24,15,8,30.08,29.99,4,1,8,0.00
2013-12-28,73.0,59.3,50.0,51.0,30.8,-99.9,76,38,16,30.00,29.88,8,2,14,0.00
2013-12-29,79.0,55.9,46.0,54.0,32.7,10.0,90,50,7,30.09,29.94,6,2,12,0.00
2013-12-30,76.0,61.4,52.0,33.0,19.3,9.0,36,20,12,30.20,30.09,5,1,11,0.00
2013-12-31,71.0,57.1,50.0,51.0,38.3,16.0,84,54,25,30.14,30.04,4,1,7,0.00
2014-1-1,72.0,59.5,46.0,53.0,45.4,39.0,89,62,42,30.08,29.98,5,1,9,0.00
2014-1-2,78.0,66.0,51.0,48.0,38.3,31.0,76,38,23,30.04,29.95,5,2,9,0.00